Liberia, Costa Rica

12:05 PM CST on June 22, 2017 (GMT -0600)
Daniel Oduber Quiros International

Weather History for MRLB - March, 2013

Change the Weather History Date:

Thursday, March 21, 2013

  Actual Average Record
Temperature  
Mean Temperature 84 °F -  
Max Temperature 97 °F 93 °F 100 °F (1998)
Min Temperature 70 °F 76 °F 65 °F (2015)
Cooling Degree Days 18    
Growing Degree Days 34 (Base 50)    
Moisture  
Dew Point 68 °F    
Average Humidity 57    
Maximum Humidity 78    
Minimum Humidity 34    
Precipitation  
Precipitation 0.00 in - - ()
Sea Level Pressure  
Sea Level Pressure 29.81 in    
Wind  
Wind Speed 7 mph ()    
Max Wind Speed 16 mph    
Max Gust Speed -    
Visibility 7.8 miles    
Events      
Averages and records for this station are not official NWS values.
T = Trace of Precipitation, MM = Missing Value Source: Averaged Metar Reports

Daily Weather History Graph

Daily Weather History Graph

Search for Another Location

Airport or City:

Trip Planner

Search our weather history database for the weather conditions in past years. The results will help you decide how hot, cold, wet, or windy it might be!

Date:

Astronomy

Mar. 21, 2013 Rise Set
Actual Time 5:45 AM CST 5:52 PM CST
Civil Twilight 5:24 AM CST 6:14 PM CST
Nautical Twilight 5:00 AM CST 6:38 PM CST
Astronomical Twilight 4:35 AM CST 7:02 PM CST
Moon 1:11 PM CST (3/21) 1:14 AM CST (3/21)
Length of Visible Light 12h 49m
Length of Day
12h 07m
Waxing Gibbous, 69% of the Moon is Illuminated
Mar 21
Waxing Gibbous
Mar 27
Full
Apr 2
Last Quarter
Apr 10
New
Apr 18
First Quarter

Hourly Weather History & Observations

Time (CST) Temp. Heat Index Dew Point Humidity Pressure Visibility Wind Dir Wind Speed Gust Speed Precip Events Conditions
6:00 AM 71 °F - 65 °F 76% 29.84 in 12 mi NE 5.8 mph - -   Clear
6:00 AM 71.6 °F - 64.4 °F 78% 29.82 in - NE 5.8 mph - N/A   Clear
7:00 AM 73.4 °F - 66.2 °F 78% 29.85 in 6.2 mi NNE 4.6 mph - N/A   Mostly Cloudy
8:00 AM 80.6 °F 82.7 °F 66.2 °F 61% 29.87 in - NE 5.8 mph - N/A   Clear
9:00 AM 85 °F - 71 °F 55% 29.88 in 12 mi SSE 6.9 mph - -   Haze
9:00 AM 86.0 °F 91.8 °F 71.6 °F 62% 29.86 in - SSE 6.9 mph - N/A   Clear
10:00 AM 89.6 °F 94.7 °F 69.8 °F 52% 29.85 in - SE 5.8 mph - N/A   Clear
11:00 AM 93.2 °F 94.9 °F 64.4 °F 38% 29.82 in 6.2 mi SW 5.8 mph - N/A   Mostly Cloudy
12:00 PM 93 °F - 68 °F 34% 29.79 in 12 mi West 10.4 mph - -   Overcast
12:00 PM 93.2 °F 97.7 °F 68.0 °F 44% 29.78 in 6.2 mi West 10.4 mph - N/A   Mostly Cloudy
1:00 PM 93.2 °F 97.7 °F 68.0 °F 44% 29.76 in 6.2 mi West 15.0 mph - N/A   Mostly Cloudy
2:00 PM 91.4 °F 95.4 °F 68.0 °F 46% 29.74 in 6.2 mi West 16.1 mph - N/A   Mostly Cloudy
3:00 PM 90 °F - 67 °F 38% 29.75 in 12 mi West 16.1 mph - -   Overcast
3:00 PM 89.6 °F 93.4 °F 68.0 °F 49% 29.74 in 6.2 mi West 16.1 mph - N/A   Mostly Cloudy
4:00 PM 87.8 °F 91.4 °F 68.0 °F 52% 29.73 in 6.2 mi West 16.1 mph - N/A   Mostly Cloudy
5:00 PM 87.8 °F 91.4 °F 68.0 °F 52% 29.74 in 6.2 mi WSW 12.7 mph - N/A   Mostly Cloudy
6:00 PM 85 °F - 68 °F 47% 29.80 in 12 mi West 3.5 mph - -   Overcast
6:00 PM 86.0 °F 89.4 °F 68.0 °F 55% 29.78 in 6.2 mi West 3.5 mph - N/A   Mostly Cloudy
7:00 PM 82.4 °F 87.2 °F 71.6 °F 70% 29.80 in 6.2 mi East 3.5 mph - N/A   Mostly Cloudy
8:00 PM 80.6 °F 84.6 °F 71.6 °F 74% 29.83 in 6.2 mi North 3.5 mph - N/A   Mostly Cloudy
9:00 PM 80.6 °F 84.6 °F 71.6 °F 74% 29.86 in 6.2 mi NE 3.5 mph - N/A   Mostly Cloudy
10:00 PM 78.8 °F - 71.6 °F 78% 29.88 in 6.2 mi NNE 3.5 mph - N/A   Mostly Cloudy